Find Starlink 35768

NORAD ID: 66832 Int'l Des: 2025-280 Owner: SPXS Country: US Constellation: starlink operational
LEOCIRCULAR

Current View

Loading 3D Globe...

About Starlink 35768

Description loading...

Upcoming Passes

Passes for default location (London). Set your location on the main map for personalized predictions.

Altitude History

Loading altitude history...

Two-Line Element Set

1 66832U 25280M 26149.93210167 .00006931 00000-0 58792-3 0 9996
2 66832 70.0010 129.6800 0003218 256.9484 103.1316 14.98340667 28242
Epoch: May 29, 2026 • Age: 15 hours

Current Status

Altitude 574.4 km
Velocity 7.57 km/s
Sub-Earth Point -4.60°S, 142.52°W
Launch Date Dec 2, 2025
Age 0.4 years
Type internet

Technical Details

Classification Payload
Mass 575.00 kg
Dry Mass 530.00 kg
Total Mass 575.00 kg
Length 0.30 m
Diameter 4.10 m
Span 29.00 m
Shape Box + pan
Manufacturer SPXS
Bus Type Starlink V2MO
Phase Status In Orbit
Owner/State SPXS/US

Most Searched